| time (UTC) | temp C | wind direction | speed KPH | gust KPH | rain 1hr cm | rain 24hr cm | rain mn cm | humidity % | barometer mb |
| 20260831040043 | 16 | 229 | 0.0 | 0.0 | 0.00 | 0.00 | 0.00 | 100 | 1020.9 |
| 20260831034537 | 16 | 229 | 0.0 | 0.0 | 0.00 | 0.00 | 0.03 | 100 | 1020.9 |
| 20260831033036 | 16 | 229 | 0.0 | 0.0 | 0.00 | 0.00 | 0.03 | 100 | 1020.9 |
| 20260831031534 | 16 | 228 | 0.0 | 0.0 | 0.00 | 0.00 | 0.03 | 100 | 1020.9 |
| 20260831030031 | 16 | 228 | 0.0 | 0.0 | 0.00 | 0.00 | 0.03 | 100 | 1020.9 |
| 20260831024528 | 16 | 228 | 1.6 | 0.0 | 0.00 | 0.00 | 0.03 | 100 | 1020.9 |
| 20260831023020 | 16 | 229 | 0.0 | 0.0 | 0.00 | 0.00 | 0.03 | 100 | 1020.9 |
| 20260831021525 | 17 | 229 | 0.0 | 0.0 | 0.00 | 0.00 | 0.03 | 100 | 1020.8 |
| 20260831020013 | 17 | 229 | 0.0 | 0.0 | 0.00 | 0.00 | 0.03 | 100 | 1020.9 |
| 20260831014517 | 17 | 229 | 1.6 | 0.0 | 0.00 | 0.00 | 0.03 | 100 | 1020.9 |
| 20260831013005 | 17 | 225 | 4.8 | 0.0 | 0.00 | 0.00 | 0.03 | 100 | 1020.9 |
| 20260831011600 | 17 | 242 | 1.6 | 0.0 | 0.00 | 0.00 | 0.03 | 100 | 1020.7 |
| 20260831010119 | 16 | 248 | 1.6 | 0.0 | 0.00 | 0.00 | 0.03 | 100 | 1020.5 |
| 20260831004555 | 17 | 257 | 0.0 | 0.0 | 0.00 | 0.00 | 0.03 | 100 | 1020.2 |
| 20260831003048 | 17 | 259 | 0.0 | 0.0 | 0.00 | 0.00 | 0.03 | 100 | 1019.8 |
| 20260831001544 | 17 | 259 | 0.0 | 0.0 | 0.00 | 0.00 | 0.03 | 100 | 1019.6 |
| 20260831000140 | 17 | 259 | 0.0 | 0.0 | 0.00 | 0.00 | 0.03 | 100 | 1019.3 |
| 20260830234538 | 17 | 260 | 0.0 | 0.0 | 0.00 | 0.00 | 0.03 | 100 | 1019.1 |
| 20260830233035 | 17 | 261 | 0.0 | 0.0 | 0.00 | 0.00 | 0.03 | 100 | 1019.2 |
| 20260830231529 | 17 | 262 | 1.6 | 0.0 | 0.00 | 0.00 | 0.03 | 100 | 1019.0 |
| 20260830230026 | 17 | 278 | 0.0 | 0.0 | 0.00 | 0.00 | 0.03 | 100 | 1019.2 |
| 20260830224523 | 17 | 279 | 0.0 | 0.0 | 0.00 | 0.00 | 0.03 | 100 | 1019.2 |
| 20260830223017 | 17 | 284 | 0.0 | 0.0 | 0.00 | 0.00 | 0.03 | 100 | 1019.2 |
| 20260830221512 | 18 | 288 | 0.0 | 0.0 | 0.00 | 0.00 | 0.03 | 100 | 1019.2 |
| 20260830220009 | 18 | 288 | 0.0 | 0.0 | 0.00 | 0.00 | 0.03 | 100 | 1019.1 |
| 20260830214504 | 18 | 288 | 0.0 | 0.0 | 0.00 | 0.00 | 0.00 | 13 | 1019.1 |
| 20260830213005 | 19 | 287 | 3.2 | 0.0 | 0.00 | 0.00 | 0.00 | 33 | 1019.0 |
| 20260830211600 | 20 | 264 | 3.2 | 0.0 | 0.00 | 0.00 | 0.00 | 44 | 1018.7 |
| 20260830210054 | 21 | 257 | 3.2 | 0.0 | 0.00 | 0.00 | 0.00 | 52 | 1018.6 |
| 20260830204549 | 21 | 240 | 1.6 | 0.0 | 0.00 | 0.00 | 0.00 | 51 | 1018.5 |
| 20260830203047 | 21 | 248 | 1.6 | 0.0 | 0.00 | 0.00 | 0.00 | 51 | 1018.3 |
| 20260830201545 | 22 | 249 | 3.2 | 0.0 | 0.00 | 0.00 | 0.00 | 52 | 1018.3 |
| 20260830200037 | 22 | 249 | 1.6 | 0.0 | 0.00 | 0.00 | 0.00 | 53 | 1018.6 |
| 20260830194543 | 22 | 263 | 1.6 | 0.0 | 0.00 | 0.00 | 0.00 | 54 | 1018.4 |
| 20260830193034 | 22 | 252 | 3.2 | 0.0 | 0.00 | 0.00 | 0.00 | 54 | 1018.6 |
| 20260830191527 | 23 | 269 | 4.8 | 0.0 | 0.00 | 0.00 | 0.00 | 53 | 1018.7 |
| 20260830190026 | 22 | 316 | 4.8 | 0.0 | 0.00 | 0.00 | 0.00 | 53 | 1018.8 |
| 20260830184524 | 23 | 264 | 4.8 | 0.0 | 0.00 | 0.00 | 0.00 | 52 | 1019.0 |
| 20260830183015 | 23 | 224 | 4.8 | 0.0 | 0.00 | 0.00 | 0.00 | 51 | 1018.9 |
| 20260830181511 | 23 | 202 | 6.4 | 0.0 | 0.00 | 0.00 | 0.00 | 51 | 1019.0 |
| 20260830180007 | 23 | 234 | 6.4 | 0.0 | 0.00 | 0.00 | 0.00 | 48 | 1019.3 |
| 20260830174501 | 22 | 179 | 4.8 | 0.0 | 0.00 | 0.00 | 0.00 | 45 | 1019.3 |
| 20260830171633 | 22 | 247 | 6.4 | 0.0 | 0.00 | 0.00 | 0.00 | 46 | 1019.6 |
| 20260830170052 | 22 | 238 | 4.8 | 0.0 | 0.00 | 0.00 | 0.00 | 45 | 1019.7 |
| 20260830164548 | 21 | 196 | 8.0 | 0.0 | 0.00 | 0.00 | 0.00 | 45 | 1020.0 |
| 20260830161543 | 21 | 190 | 4.8 | 0.0 | 0.00 | 0.00 | 0.00 | 47 | 1020.1 |
| 20260830160035 | 21 | 181 | 6.4 | 0.0 | 0.00 | 0.00 | 0.00 | 49 | 1020.3 |
| 20260830154531 | 21 | 246 | 4.8 | 0.0 | 0.00 | 0.00 | 0.00 | 49 | 1020.3 |
| 20260830151524 | 20 | 223 | 3.2 | 0.0 | 0.00 | 0.00 | 0.00 | 49 | 1020.8 |
| 20260830150022 | 20 | 203 | 3.2 | 0.0 | 0.00 | 0.00 | 0.00 | 50 | 1020.9 |
| 20260830144519 | 20 | 211 | 3.2 | 0.0 | 0.00 | 0.00 | 0.00 | 48 | 1020.9 |
| 20260830141509 | 18 | 221 | 1.6 | 0.0 | 0.00 | 0.00 | 0.00 | 45 | 1021.1 |
| 20260830140005 | 18 | 234 | 1.6 | 0.0 | 0.00 | 0.00 | 0.00 | 40 | 1021.2 |
| 20260830134600 | 17 | 234 | 0.0 | 0.0 | 0.00 | 0.00 | 0.00 | 17 | 1021.4 |
| 20260830131555 | 16 | 234 | 0.0 | 0.0 | 0.00 | 0.00 | 0.00 | 100 | 1021.8 |
| 20260830130057 | 16 | 234 | 0.0 | 0.0 | 0.00 | 0.00 | 0.00 | 100 | 1021.8 |
| 20260830124544 | 16 | 234 | 0.0 | 0.0 | 0.00 | 0.00 | 0.00 | 100 | 1021.9 |
| 20260830121540 | 15 | 234 | 0.0 | 0.0 | 0.00 | 0.00 | 0.00 | 100 | 1022.4 |
| 20260830120035 | 13 | 234 | 0.0 | 0.0 | 0.00 | 0.00 | 0.00 | 100 | 1022.4 |
| 20260830114535 | 13 | 234 | 0.0 | 0.0 | 0.00 | 0.00 | 0.00 | 100 | 1022.5 |
| 20260830111522 | 12 | 234 | 0.0 | 0.0 | 0.00 | 0.00 | 0.00 | 100 | 1022.6 |
| 20260830110019 | 12 | 234 | 0.0 | 0.0 | 0.00 | 0.00 | 0.00 | 100 | 1022.5 |
| 20260830104514 | 12 | 234 | 0.0 | 0.0 | 0.00 | 0.00 | 0.00 | 100 | 1022.5 |
| 20260830101506 | 12 | 234 | 0.0 | 0.0 | 0.00 | 0.00 | 0.00 | 100 | 1022.9 |
| 20260830100002 | 12 | 234 | 0.0 | 0.0 | 0.00 | 0.00 | 0.00 | 100 | 1022.9 |
| 20260830094558 | 12 | 234 | 0.0 | 0.0 | 0.00 | 0.00 | 0.00 | 100 | 1022.6 |
| 20260830091549 | 12 | 234 | 0.0 | 0.0 | 0.00 | 0.00 | 0.00 | 100 | 1022.7 |
| 20260830090044 | 12 | 234 | 0.0 | 0.0 | 0.00 | 0.00 | 0.00 | 100 | 1022.9 |
| 20260830084613 | 12 | 234 | 0.0 | 0.0 | 0.00 | 0.00 | 0.00 | 100 | 1023.1 |
| 20260830081532 | 12 | 234 | 0.0 | 0.0 | 0.00 | 0.00 | 0.00 | 100 | 1023.1 |
| 20260830080028 | 12 | 234 | 0.0 | 0.0 | 0.00 | 0.00 | 0.00 | 100 | 1023.2 |
| 20260830074525 | 12 | 234 | 0.0 | 0.0 | 0.00 | 0.00 | 0.00 | 100 | 1023.3 |
| 20260830071517 | 12 | 234 | 0.0 | 0.0 | 0.00 | 0.00 | 0.00 | 100 | 1023.3 |
| 20260830070012 | 12 | 234 | 0.0 | 0.0 | 0.00 | 0.00 | 0.00 | 100 | 1023.0 |
| 20260830064508 | 11 | 234 | 0.0 | 0.0 | 0.00 | 0.00 | 0.00 | 100 | 1023.0 |
| 20260830061501 | 11 | 234 | 0.0 | 0.0 | 0.00 | 0.00 | 0.00 | 100 | 1023.0 |
| 20260830060057 | 11 | 234 | 0.0 | 0.0 | 0.00 | 0.00 | 0.00 | 100 | 1023.2 |
| 20260830054553 | 11 | 234 | 0.0 | 0.0 | 0.00 | 0.00 | 0.00 | 100 | 1023.5 |
| 20260830053149 | 10 | 234 | 0.0 | 0.0 | 0.00 | 0.00 | 0.00 | 100 | 1023.6 |
| 20260830051551 | 10 | 234 | 0.0 | 0.0 | 0.00 | 0.00 | 0.00 | 100 | 1023.7 |
| 20260830050045 | 11 | 234 | 0.0 | 0.0 | 0.00 | 0.00 | 0.00 | 100 | 1023.7 |
| 20260830044546 | 11 | 234 | 0.0 | 0.0 | 0.00 | 0.00 | 0.00 | 100 | 1023.5 |
| 20260830043136 | 11 | 234 | 0.0 | 0.0 | 0.00 | 0.00 | 0.00 | 100 | 1023.3 |